ARIANE 5 R/B, 40734

Orbit data source: Space-Track

ARIANE 5 R/B, 40734 is space debris in HEO originally from a launch on Wed, 15 Jul 2015 UTC launched from the French Guiana (FRGUI). Debris objects in space refer to the collection of defunct objects orbiting the Earth. Examples of debris include non-operational satellites, rocket bodies, and fragments generated from explosions, collisions, or faulty payload assembly.

Loading next visibility...
Identifier
40734, 2015-034C
Orbit
HEO
Last TLE update
13 hours ago
Origin
Manufacturer
Airbus Safran
Mission
Spacecraft
Bus & Motor
ESC-A, Unknown motor
Mass
~5,000 kg wet, ~5,000 kg dry
Launch date (UTC)
2015-07-15 (10 years ago)
Launch vehicle
Unknown
Launch site
French Guiana (FRGUI)
Object type
Payload
Rocket body
Debris
Shape & HBR
Cyl + 1 Nozzle, 7 m
Radar Cross Section
41.627 m², Large (>1 m²)

Expand to show TLE details & history

TLE from 13 hours ago
0 ARIANE 5 R/B
1 40734U 15034C   25186.78561390  .00000574  00000-0  33234-3 0  9996
2 40734   4.3595 347.8904 7175539 348.9016   1.1395  2.38972216 84448
Epoch: 2025-07-05T18:51Z
TLE epoch observation values (Epoch: 2025-07-05T18:51:17.04Z)
Latitude
0.00011°
Longitude
141.01758°
Altitude
360.227 km
Speed
10.071 km/s
True Right ascension
23h 11m 25s
True Declination
0° 00' 00"
Sunlit
Object was in full shadow at epoch
Visualization orbit readout
Latitude
1.98427°
Longitude
-66.02753°
Altitude
30,483.558 km
Speed
2.182 km/s
Apparent Right ascension
09h 13m 58s
Apparent Declination
-3° 51' 24"
Sunlit
Object is in daylight
Visualization observer readout
Local Sidereal Time
20:03:07
Azimuth
331.465° NNW
Elevation
-50.545°
Doppler factor
1
Orbital elements
Apogee altitude
34,220.803 km
Perigee altitude
298.225 km
Semi-major axis
23,637.651 km
Eccentricity
0.71755
Inclination
4.3595°
RAAN
347.8904°
Arg. of periapsis
348.9016°
True anomaly
Unknown
Mean anomaly
1.1395°
Eccentric anomaly
Unknown
Mean motion
0.59722 °/min
Orbital period
602.79 mins
BSTAR
0.00033234
Loading maneuver chart data...
Loading SW <> Apogee altitude chart data...
Loading historical data...
Loading historical data...
Loading historical data...
Loading historical data...
Loading historical data...
Loading historical data...
Loading historical data...

ARIANE 5 R/B Visibility forecast

Observer location: undefined°, undefined°

Span
Click to sort rows by Start time (UTC) header in descending order
Start Az.
Max El. time (UTC)
Max El. Az.
Max El.
End time (UTC)
End Az.
540 mins2025-07-06 15:11:20.709Z180.438° SSW2025-07-06 21:59:20.709Z142.722° SSE29.413°2025-07-07 00:11:20.709Z129.953° SE
|